Location: Unspecified
(41.5000°N, 0.0000°E)
Time: 11:39:01
(UTC+00:00)

Vanguard 2 - Pass Details

Date: 21 June 2019
Orbit: 553 x 2938 km, 32.9° (Epoch: 20 July)

Event Time Altitude Azimuth Distance (km) Brightness Sun altitude
Rises 11:47:32 0° 265° (W) 4,006 11.2 71.7°
Reaches altitude 10° 11:49:57 10° 259° (W) 3,300 10.9 71.8°
Maximum altitude 11:58:11 48° 189° (S) 2,252 11.4 71.9°
Drops below altitude 10° 12:11:22 10° 122° (ESE) 5,176 12.0 71.8°
Sets 12:16:15 0° 117° (ESE) 6,455 12.3 71.7°
